Regional Weather Roundup
Issued by NWS

Home | Current Version | Previous Version | Graphics & Text | Print | Product List | Glossary On
Versions: 1 2 3 4 5 6 7 8 9 10 11 12 13 14 15 16 17 18 19 20 21 22 23 24 25 26 27 28 29 30 31 32 33 34 35 36 37 38 39 40 41 42 43 44 45 46 47 48 49 50
379
ASUS43 KFSD 190310
RWRSD

WEATHER ROUNDUP FOR SOUTH DAKOTA
NATIONAL WEATHER SERVICE SIOUX FALLS SD
900 PM CST WED JAN 18 2017

NOTE: "FAIR" INDICATES FEW OR NO CLOUDS BELOW 12,000 FEET WITH NO
SIGNIFICANT WEATHER AND/OR OBSTRUCTIONS TO VISIBILITY.


SDZ001>005-009-010-012>017-190400-
NORTHWEST AND NORTH CENTRAL SOUTH DAKOTA

CITY           SKY/WX    TMP DP  RH WIND       PRES   REMARKS
BUFFALO          N/A     30  22  72 S7        29.53F WCI  23
FAITH            N/A     25  20  81 S13       29.60F WCI  14
MOBRIDGE       CLOUDY    23  17  78 SE8       29.63F WCI  14
$$

SDZ012>016-024>037-041>051-057-063-072>074-190400-
SOUTHWEST AND SOUTH CENTRAL SOUTH DAKOTA

CITY           SKY/WX    TMP DP  RH WIND       PRES   REMARKS
RAPID CTY ARPT CLOUDY    28  23  81 N9        29.58F WCI  19
PIERRE         CLOUDY    19  16  88 NE3       29.64F
CUSTER         CLOUDY    33  18  53 NW3       29.65F
ELLSWORTH AFB  CLOUDY    30  25  80 N14       29.58F WCI  20
PHILIP         CLOUDY    24  21  88 CALM      29.62F
PINE RIDGE     CLOUDY    37  26  64 CALM      29.63F
SPEARFISH      FAIR      39  27  60 SW10      29.60F
WINNER         FAIR      43  25  49 SW9       29.65F
$$

SDZ004>011-016>023-039-040-190400-
NORTHEAST SOUTH DAKOTA

CITY           SKY/WX    TMP DP  RH WIND       PRES   REMARKS
ABERDEEN       CLOUDY    20  17  88 CALM      29.70F FOG
WATERTOWN      CLOUDY    27  26  96 SE8       29.72F WCI  19
BROOKINGS      CLOUDY    34  32  92 S12       29.73F WCI  25
SISSETON         N/A     29  25  85 SE6       29.71F WCI  23
$$

SDZ017-020-022-023-036>040-048>070-190400-
SOUTHEAST SOUTH DAKOTA

CITY           SKY/WX    TMP DP  RH WIND       PRES   REMARKS
SIOUX FALLS    CLEAR     40  37  89 S14       29.77S
HURON          CLOUDY    35  33  92 S13       29.69F WCI  26
CHAMBERLAIN    CLOUDY    32  28  84 SE5       29.66F WCI  28
MITCHELL       CLOUDY    36  34  92 S10       29.72F
YANKTON        CLEAR     39  36  87 S13       29.76F
$$

ABBREVIATIONS USED IN REMARKS
   TC - TEMPERATURE IN CELSIUS
  WCI - WIND CHILL INDEX
   HX - HEAT INDEX
  VSB - VISIBILITY





USA.gov is the U.S. government's official web portal to all federal, state and local government web resources and services.